QPF
0.00 0.00 0.00 0.00 0.00 0.00 0.00 0.00 0.00 0.00 0.00 0.00 0.00 0.00 0.02 0.07 0.07 0.02 0.03 0.23 0.32 0.15 0.11 0.14 0.43 0.46 0.27 0.35 0.32 0.20 0.10 0.09 0.03 0.02 0.02 0.02 0.02 0.02 0.04 0.09 0.10 0.06
0.00 0.00 0.00 0.00 0.00 0.00 0.00 0.00 0.00 0.00 0.00 0.00 0.00 0.00 0.00 0.03 0.06 0.02 0.02 0.03 0.13 0.19 0.23 0.24 0.44 0.43 0.29 0.32 0.35 0.20 0.16 0.11 0.10 0.02 0.01 0.01 0.01 0.01 0.03 0.04 0.10 0.11
0.00 0.00 0.00 0.00 0.00 0.00 0.00 0.00 0.00 0.00 0.00 0.00 0.00 0.00 0.00 0.00 0.00 0.01 0.01 0.01 0.10 0.48 0.20 0.30 0.34 0.59 0.53 0.37 0.38 0.31 0.25 0.13 0.08 0.04 0.01 0.00 0.00 0.02 0.07 0.09 0.10 0.12
0.00 0.00 0.00 0.00 0.00 0.00 0.00 0.00 0.00 0.00 0.00 0.00 0.00 0.00 0.00 0.00 0.00 0.00 0.00 0.00 0.02 0.16 0.14 0.48 1.01 0.51 0.47 0.44 0.40 0.38 0.33 0.34 0.23 0.06 0.02 0.01 0.00 0.02 0.06 0.11 0.13 0.11
0.00 0.00 0.00 0.00 0.00 0.00 0.00 0.00 0.00 0.00 0.00 0.00 0.00 0.00 0.00 0.00 0.00 0.00 0.00 0.00 0.00 0.01 0.12 0.27 0.33 0.66 0.35 0.38 0.37 0.40 0.50 0.38 0.33 0.26 0.11 0.03 0.01 0.01 0.04 0.09 0.12 0.13
0.00 0.00 0.00 0.00 0.00 0.00 0.00 0.00 0.00 0.00 0.00 0.00 0.00 0.00 0.00 0.00 0.00 0.00 0.00 0.00 0.00 0.00 0.00 0.02 0.07 0.47 0.56 0.31 0.33 0.28 0.31 0.42 0.34 0.33 0.23 0.22 0.12 0.03 0.03 0.05 0.07 0.10
0.00 0.00 0.00 0.00 0.00 0.00 0.00 0.00 0.00 0.00 0.00 0.00 0.00 0.00 0.00 0.00 0.00 0.00 0.00 0.00 0.00 0.00 0.00 0.00 0.00 0.02 0.06 0.16 0.23 0.26 0.21 0.22 0.25 0.24 0.14 0.13 0.13 0.10 0.06 0.04 0.05 0.08
0.00 0.00 0.00 0.00 0.00 0.00 0.00 0.00 0.00 0.00 0.00 0.00 0.00 0.00 0.00 0.00 0.00 0.00 0.00 0.00 0.00 0.00 0.00 0.00 0.00 0.00 0.01 0.02 0.07 0.15 0.21 0.21 0.18 0.20 0.15 0.07 0.03 0.06 0.08 0.06 0.09 0.10
0.00 0.00 0.00 0.00 0.00 0.00 0.01 0.01 0.01 0.01 0.00 0.00 0.00 0.00 0.00 0.00 0.00 0.00 0.00 0.00 0.00 0.00 0.01 0.00 0.00 0.00 0.00 0.00 0.03 0.09 0.27 0.33 0.21 0.16 0.12 0.09 0.07 0.03 0.04 0.07 0.12 0.27
0.00 0.00 0.00 0.00 0.00 0.02 0.03 0.00 0.00 0.01 0.00 0.01 0.00 0.00 0.00 0.00 0.00 0.00 0.00 0.00 0.00 0.00 0.00 0.00 0.01 0.01 0.00 0.00 0.00 0.01 0.09 0.17 0.14 0.10 0.06 0.04 0.03 0.03 0.03 0.06 0.09 0.22
0.00 0.00 0.00 0.00 0.01 0.02 0.01 0.00 0.00 0.01 0.01 0.00 0.00 0.01 0.00 0.00 0.00 0.00 0.00 0.00 0.00 0.00 0.00 0.00 0.00 0.00 0.00 0.02 0.04 0.02 0.02 0.09 0.12 0.14 0.06 0.02 0.02 0.01 0.01 0.04 0.08 0.12
0.00 0.00 0.00 0.00 0.01 0.03 0.03 0.00 0.00 0.01 0.00 0.00 0.00 0.01 0.00 0.00 0.00 0.00 0.00 0.00 0.00 0.00 0.00 0.00 0.00 0.00 0.01 0.00 0.01 0.01 0.01 0.01 0.05 0.16 0.19 0.09 0.02 0.01 0.01 0.02 0.05 0.08
0.00 0.00 0.00 0.00 0.02 0.03 0.00 0.00 0.00 0.00 0.00 0.00 0.00 0.00 0.00 0.00 0.00 0.00 0.00 0.00 0.00 0.00 0.00 0.00 0.00 0.00 0.00 0.00 0.01 0.02 0.02 0.03 0.02 0.01 0.04 0.07 0.06 0.03 0.01 0.01 0.03 0.05
0.00 0.00 0.00 0.00 0.01 0.00 0.00 0.00 0.00 0.00 0.00 0.00 0.00 0.00 0.00 0.00 0.00 0.00 0.00 0.00 0.00 0.00 0.01 0.00 0.00 0.00 0.00 0.00 0.00 0.00 0.01 0.01 0.02 0.02 0.01 0.01 0.00 0.04 0.03 0.01 0.01 0.03
0.00 0.00 0.00 0.00 0.00 0.00 0.00 0.00 0.00 0.00 0.00 0.00 0.00 0.00 0.00 0.00 0.00 0.00 0.00 0.00 0.00 0.00 0.00 0.00 0.00 0.00 0.00 0.00 0.00 0.00 0.00 0.00 0.00 0.01 0.01 0.01 0.01 0.00 0.01 0.02 0.02 0.01
0.00 0.00 0.00 0.00 0.00 0.00 0.00 0.00 0.00 0.00 0.00 0.00 0.00 0.00 0.00 0.00 0.00 0.00 0.00 0.00 0.00 0.00 0.00 0.00 0.00 0.00 0.00 0.00 0.00 0.00 0.00 0.00 0.00 0.00 0.00 0.00 0.00 0.01 0.01 0.01 0.04 0.04
0.00 0.00 0.00 0.00 0.00 0.00 0.00 0.00 0.00 0.00 0.00 0.00 0.00 0.00 0.00 0.00 0.00 0.01 0.00 0.00 0.00 0.00 0.00 0.00 0.00 0.00 0.00 0.00 0.00 0.00 0.00 0.00 0.00 0.00 0.00 0.00 0.00 0.00 0.01 0.02 0.04 0.04
0.00 0.00 0.00 0.00 0.00 0.00 0.00 0.00 0.00 0.00 0.00 0.00 0.00 0.00 0.00 0.00 0.00 0.01 0.01 0.00 0.00 0.00 0.00 0.00 0.00 0.00 0.00 0.00 0.00 0.00 0.00 0.00 0.00 0.00 0.00 0.00 0.00 0.00 0.00 0.00 0.04 0.06
0.00 0.00 0.00 0.00 0.00 0.00 0.00 0.00 0.00 0.00 0.00 0.00 0.00 0.00 0.00 0.00 0.00 0.00 0.00 0.01 0.00 0.00 0.00 0.00 0.00 0.00 0.00 0.00 0.00 0.00 0.00 0.00 0.00 0.00 0.00 0.00 0.00 0.00 0.00 0.01 0.01 0.02
0.00 0.00 0.00 0.00 0.00 0.00 0.00 0.00 0.00 0.00 0.00 0.00 0.00 0.00 0.00 0.00 0.00 0.00 0.00 0.00 0.00 0.00 0.00 0.00 0.00 0.00 0.00 0.00 0.00 0.00 0.00 0.00 0.00 0.00 0.00 0.00 0.00 0.00 0.00 0.00 0.00 0.01
0.00 0.00 0.00 0.00 0.00 0.00 0.00 0.00 0.00 0.00 0.00 0.00 0.00 0.00 0.00 0.00 0.00 0.00 0.00 0.00 0.00 0.00 0.00 0.00 0.00 0.00 0.00 0.00 0.00 0.00 0.00 0.00 0.00 0.00 0.00 0.00 0.00 0.00 0.00 0.00 0.00 0.00
0.00 0.00 0.00 0.00 0.00 0.00 0.00 0.00 0.00 0.00 0.00 0.00 0.00 0.00 0.00 0.00 0.00 0.00 0.00 0.00 0.00 0.00 0.00 0.00 0.00 0.00 0.00 0.00 0.00 0.00 0.00 0.00 0.00 0.00 0.00 0.00 0.00 0.00 0.00 0.00 0.00 0.00
0.00 0.00 0.00 0.00 0.00 0.00 0.00 0.00 0.00 0.00 0.00 0.00 0.00 0.00 0.00 0.00 0.00 0.00 0.00 0.00 0.00 0.00 0.00 0.00 0.00 0.00 0.00 0.00 0.00 0.00 0.00 0.00 0.00 0.00 0.00 0.00 0.00 0.01 0.00 0.01 0.00 0.00
0.00 0.00 0.00 0.00 0.00 0.00 0.00 0.00 0.00 0.00 0.00 0.00 0.00 0.00 0.00 0.00 0.00 0.00 0.00 0.00 0.00 0.00 0.00 0.00 0.00 0.00 0.00 0.00 0.00 0.00 0.00 0.00 0.00 0.00 0.00 0.00 0.00 0.00 0.01 0.01 0.00 0.00
0.00 0.00 0.00 0.00 0.00 0.00 0.00 0.00 0.00 0.00 0.00 0.00 0.00 0.00 0.00 0.00 0.00 0.00 0.00 0.00 0.00 0.00 0.00 0.00 0.00 0.00 0.00 0.00 0.00 0.00 0.00 0.00 0.00 0.00 0.00 0.00 0.00 0.00 0.00 0.00 0.00 0.00
0.00 0.00 0.00 0.00 0.00 0.00 0.00 0.00 0.00 0.00 0.00 0.00 0.00 0.00 0.00 0.00 0.00 0.00 0.00 0.00 0.00 0.00 0.00 0.00 0.00 0.00 0.00 0.00 0.00 0.00 0.00 0.00 0.00 0.00 0.00 0.00 0.00 0.00 0.00 0.00 0.00 0.00
MSLP
1019.95 1019.83 1019.71 1019.63 1019.55 1019.31 1019.19 1019.03 1018.83 1018.63 1018.31 1018.07 1017.95 1017.75 1017.51 1017.23 1016.95 1016.79 1016.59 1016.43 1016.23 1016.07 1015.95 1015.99 1016.03 1015.87 1015.91 1016.07 1016.51 1016.67 1016.75 1016.79 1016.83 1016.75 1016.75 1016.79 1016.91 1017.11 1017.27 1017.19 1017.15 1017.23
1019.91 1019.79 1019.59 1019.47 1019.35 1019.23 1019.11 1019.03 1018.83 1018.67 1018.35 1018.03 1017.83 1017.71 1017.39 1017.19 1017.03 1016.79 1016.67 1016.51 1016.31 1016.15 1015.87 1015.79 1015.83 1015.83 1015.91 1016.03 1016.11 1016.23 1016.47 1016.59 1016.67 1016.71 1016.71 1016.75 1016.79 1016.95 1017.11 1016.99 1016.91 1017.03
1019.87 1019.75 1019.59 1019.47 1019.35 1019.19 1019.03 1018.87 1018.75 1018.55 1018.35 1018.03 1017.75 1017.59 1017.43 1017.19 1016.95 1016.79 1016.67 1016.51 1016.31 1016.11 1015.99 1015.83 1015.87 1015.91 1015.95 1015.91 1016.03 1016.11 1016.27 1016.43 1016.71 1016.71 1016.55 1016.59 1016.67 1016.79 1016.87 1016.87 1016.91 1016.99
1019.83 1019.71 1019.55 1019.39 1019.23 1019.07 1018.95 1018.87 1018.67 1018.47 1018.27 1018.03 1017.79 1017.55 1017.39 1017.23 1016.95 1016.79 1016.67 1016.51 1016.43 1016.23 1016.11 1016.03 1016.03 1015.95 1015.99 1015.99 1016.07 1016.15 1016.23 1016.35 1016.47 1016.43 1016.47 1016.55 1016.71 1016.79 1016.83 1016.91 1016.91 1016.99
1019.83 1019.63 1019.47 1019.35 1019.15 1018.99 1018.91 1018.83 1018.67 1018.51 1018.31 1018.11 1017.79 1017.47 1017.35 1017.23 1017.11 1016.95 1016.75 1016.55 1016.43 1016.35 1016.15 1016.15 1016.19 1016.19 1016.27 1016.11 1016.03 1016.15 1016.27 1016.43 1016.43 1016.47 1016.43 1016.59 1016.75 1016.87 1016.91 1016.91 1016.91 1016.99
1019.71 1019.59 1019.43 1019.31 1019.15 1018.99 1018.91 1018.75 1018.63 1018.47 1018.27 1018.03 1017.83 1017.67 1017.47 1017.39 1017.27 1017.11 1016.87 1016.67 1016.43 1016.39 1016.31 1016.19 1016.19 1016.39 1016.31 1016.15 1016.23 1016.27 1016.39 1016.35 1016.35 1016.43 1016.47 1016.55 1016.83 1016.91 1016.95 1016.95 1016.95 1017.07
1019.71 1019.55 1019.39 1019.23 1019.11 1018.95 1018.83 1018.67 1018.55 1018.39 1018.27 1018.07 1017.91 1017.67 1017.59 1017.43 1017.31 1017.15 1016.95 1016.71 1016.59 1016.39 1016.35 1016.27 1016.27 1016.31 1016.27 1016.27 1016.31 1016.43 1016.55 1016.51 1016.51 1016.59 1016.59 1016.75 1016.99 1017.11 1016.99 1016.99 1016.99 1017.03
1019.63 1019.51 1019.39 1019.23 1019.15 1018.99 1018.83 1018.67 1018.51 1018.35 1018.19 1018.03 1017.91 1017.71 1017.59 1017.51 1017.39 1017.23 1017.03 1016.87 1016.71 1016.55 1016.47 1016.35 1016.23 1016.31 1016.31 1016.31 1016.43 1016.47 1016.55 1016.63 1016.75 1016.71 1016.63 1016.75 1016.79 1017.11 1017.07 1016.91 1016.83 1016.95
1019.55 1019.47 1019.35 1019.27 1019.15 1018.99 1018.87 1018.71 1018.51 1018.31 1018.15 1018.03 1017.91 1017.79 1017.67 1017.63 1017.51 1017.35 1017.23 1017.03 1016.91 1016.79 1016.63 1016.47 1016.39 1016.27 1016.27 1016.35 1016.43 1016.51 1016.59 1016.63 1016.75 1016.87 1017.07 1016.95 1016.87 1016.95 1016.99 1016.91 1016.83 1016.79
1019.55 1019.47 1019.39 1019.27 1019.15 1019.03 1018.91 1018.71 1018.51 1018.35 1018.15 1018.03 1017.99 1017.99 1017.91 1017.79 1017.67 1017.51 1017.35 1017.23 1017.07 1016.95 1016.83 1016.67 1016.51 1016.43 1016.35 1016.43 1016.55 1016.55 1016.67 1016.79 1016.99 1017.07 1017.11 1016.95 1016.87 1016.79 1016.83 1016.91 1016.87 1016.71
1019.55 1019.47 1019.39 1019.27 1019.15 1019.03 1018.91 1018.71 1018.47 1018.39 1018.31 1018.23 1018.23 1018.23 1018.11 1017.99 1017.87 1017.67 1017.55 1017.43 1017.39 1017.35 1017.31 1017.23 1017.07 1016.83 1016.75 1016.71 1016.71 1016.71 1016.79 1016.91 1017.11 1017.07 1017.07 1017.03 1016.87 1016.83 1016.71 1016.75 1016.71 1016.63
1019.55 1019.47 1019.43 1019.31 1019.23 1019.03 1018.87 1018.71 1018.59 1018.51 1018.51 1018.43 1018.43 1018.43 1018.31 1018.23 1018.11 1017.99 1017.87 1017.99 1018.03 1017.91 1017.75 1017.71 1017.63 1017.55 1017.51 1017.39 1017.19 1016.99 1016.79 1016.79 1016.83 1016.87 1016.91 1017.03 1016.79 1016.67 1016.75 1016.67 1016.59 1016.47
1019.63 1019.51 1019.51 1019.35 1019.19 1019.03 1018.91 1018.79 1018.71 1018.67 1018.63 1018.71 1018.63 1018.59 1018.55 1018.43 1018.35 1018.35 1018.39 1018.39 1018.39 1018.27 1018.15 1018.07 1017.99 1017.95 1017.91 1017.83 1017.63 1017.35 1017.11 1016.87 1016.75 1016.83 1016.83 1016.83 1016.51 1016.43 1016.51 1016.67 1016.59 1016.43
1019.79 1019.47 1019.51 1019.35 1019.19 1019.03 1018.91 1018.75 1018.71 1018.75 1018.79 1018.79 1018.71 1018.75 1018.75 1018.67 1018.63 1018.63 1018.63 1018.59 1018.63 1018.55 1018.47 1018.35 1018.35 1018.23 1018.19 1018.07 1017.83 1017.67 1017.43 1017.15 1016.99 1016.83 1016.75 1016.67 1016.59 1016.55 1016.51 1016.43 1016.47 1016.39
1019.83 1019.47 1019.43 1019.19 1019.07 1019.03 1018.87 1018.79 1018.83 1018.91 1018.91 1018.83 1018.83 1018.87 1018.83 1018.79 1018.63 1018.67 1018.71 1018.71 1018.71 1018.67 1018.63 1018.63 1018.59 1018.55 1018.47 1018.43 1018.15 1017.75 1017.71 1017.51 1017.27 1017.03 1016.87 1016.75 1016.59 1016.47 1016.39 1016.27 1016.27 1016.27
1019.75 1019.51 1019.47 1019.31 1019.11 1019.03 1018.91 1018.87 1018.91 1018.99 1018.95 1018.95 1018.95 1018.99 1018.91 1018.83 1018.83 1018.83 1018.79 1018.83 1018.87 1018.87 1018.87 1018.83 1018.83 1018.75 1018.67 1018.59 1018.55 1018.31 1017.87 1017.59 1017.43 1017.19 1016.95 1016.83 1016.67 1016.47 1016.35 1016.39 1016.39 1016.11
1019.75 1019.59 1019.51 1019.31 1019.11 1018.99 1018.95 1018.95 1018.91 1018.95 1018.91 1018.95 1018.95 1018.99 1018.95 1019.03 1019.07 1019.11 1019.11 1019.03 1018.99 1018.95 1018.95 1018.99 1019.03 1018.95 1018.87 1018.67 1018.43 1018.19 1017.95 1017.67 1017.43 1017.15 1016.99 1016.79 1016.59 1016.47 1016.35 1016.23 1016.07 1016.07
1019.71 1019.67 1019.55 1019.39 1019.19 1019.07 1019.03 1018.91 1018.95 1018.87 1018.91 1018.91 1018.95 1019.03 1019.07 1019.15 1019.27 1019.27 1019.23 1019.15 1019.11 1019.07 1019.03 1018.99 1018.95 1018.91 1018.75 1018.55 1018.35 1018.11 1018.07 1017.83 1017.51 1017.27 1017.07 1016.87 1016.63 1016.43 1016.27 1016.19 1016.11 1016.07
1019.71 1019.67 1019.59 1019.43 1019.27 1018.99 1019.03 1019.03 1018.91 1018.83 1018.95 1018.99 1019.03 1019.11 1019.15 1019.19 1019.31 1019.27 1019.19 1019.11 1019.07 1019.11 1019.19 1019.15 1018.99 1018.87 1018.83 1018.67 1018.43 1018.19 1017.99 1017.91 1017.47 1017.23 1017.11 1016.87 1016.67 1016.43 1016.27 1016.15 1016.11 1016.27
1019.71 1019.67 1019.63 1019.47 1019.19 1019.15 1019.23 1019.11 1018.95 1018.95 1018.91 1018.95 1018.95 1019.07 1019.19 1019.15 1019.15 1019.19 1019.11 1018.99 1018.99 1019.11 1019.23 1019.27 1019.27 1019.15 1018.95 1018.67 1018.39 1018.15 1017.91 1017.75 1017.43 1017.23 1017.03 1016.87 1016.71 1016.59 1016.43 1016.23 1016.19 1016.55
1019.63 1019.59 1019.51 1019.51 1019.27 1019.27 1019.23 1019.07 1019.03 1019.07 1018.95 1018.83 1018.91 1019.03 1019.11 1019.15 1019.07 1019.03 1019.11 1019.07 1019.07 1019.11 1019.19 1019.31 1019.35 1019.23 1019.03 1018.71 1018.43 1018.11 1017.75 1017.55 1017.35 1017.19 1016.95 1016.91 1016.91 1016.87 1016.79 1016.79 1016.83 1016.99
1019.63 1019.51 1019.51 1019.43 1019.27 1019.23 1019.19 1019.11 1019.03 1018.91 1018.91 1018.83 1018.79 1018.83 1018.99 1019.07 1019.03 1018.95 1019.03 1019.07 1019.07 1019.19 1019.27 1019.31 1019.27 1019.19 1019.03 1018.79 1018.51 1018.07 1017.71 1017.43 1017.31 1017.19 1017.19 1017.23 1017.27 1017.31 1017.23 1017.19 1017.11 1017.19
1019.79 1019.67 1019.51 1019.47 1019.39 1019.15 1019.15 1019.07 1019.03 1019.03 1018.91 1018.87 1018.75 1018.79 1018.91 1018.99 1018.95 1018.83 1018.87 1018.99 1019.15 1019.31 1019.35 1019.35 1019.31 1019.19 1019.11 1018.91 1018.59 1018.23 1017.79 1017.63 1017.51 1017.43 1017.47 1017.59 1017.75 1017.67 1017.51 1017.39 1017.39 1017.39
1019.91 1019.71 1019.55 1019.35 1019.35 1019.23 1019.15 1019.07 1018.99 1018.99 1018.87 1018.91 1018.67 1018.67 1018.83 1018.95 1018.75 1018.79 1018.91 1019.07 1019.23 1019.47 1019.51 1019.47 1019.43 1019.31 1019.23 1018.99 1018.75 1018.47 1018.15 1017.95 1017.83 1017.71 1017.79 1017.91 1018.07 1018.07 1018.03 1017.91 1017.71 1017.63
1019.87 1019.71 1019.47 1019.59 1019.59 1019.47 1019.43 1019.35 1019.11 1018.95 1018.79 1018.79 1018.55 1018.59 1018.79 1018.71 1018.75 1018.75 1019.03 1019.35 1019.51 1019.55 1019.47 1019.55 1019.59 1019.55 1019.43 1019.19 1018.91 1018.71 1018.43 1018.27 1018.03 1017.95 1018.07 1018.23 1018.27 1018.43 1018.51 1018.59 1018.59 1018.51
1019.87 1019.79 1019.71 1019.63 1019.59 1019.43 1019.31 1019.27 1019.27 1018.99 1018.75 1018.79 1018.67 1018.63 1018.63 1018.79 1018.95 1018.91 1019.23 1019.67 1019.71 1019.71 1019.71 1019.71 1019.75 1019.79 1019.71 1019.43 1019.15 1018.91 1018.75 1018.59 1018.39 1018.11 1018.23 1018.27 1018.31 1018.47 1018.79 1018.87 1018.83 1018.83
Thickness
5582 5583 5585 5586 5587 5588 5590 5592 5594 5597 5599 5601 5603 5605 5608 5611 5614 5616 5618 5621 5622 5624 5627 5627 5628 5630 5631 5632 5631 5630 5630 5632 5636 5639 5642 5646 5647 5647 5650 5653 5656 5656
5581 5582 5583 5584 5585 5586 5588 5590 5592 5594 5596 5599 5601 5603 5606 5608 5610 5613 5615 5617 5619 5622 5625 5626 5626 5627 5629 5630 5631 5631 5631 5632 5634 5636 5639 5642 5645 5646 5648 5651 5653 5655
5578 5580 5580 5582 5583 5584 5585 5587 5589 5591 5594 5596 5599 5601 5602 5605 5607 5609 5612 5614 5617 5619 5622 5623 5624 5625 5626 5627 5629 5629 5630 5631 5632 5633 5636 5639 5641 5643 5645 5648 5650 5652
5576 5577 5578 5580 5581 5582 5583 5585 5587 5589 5591 5593 5596 5598 5600 5602 5604 5606 5609 5611 5613 5615 5618 5620 5620 5621 5622 5623 5625 5626 5627 5629 5629 5632 5634 5635 5637 5639 5641 5644 5647 5648
5573 5574 5576 5577 5579 5580 5581 5582 5584 5586 5588 5590 5593 5595 5597 5599 5600 5602 5605 5607 5609 5612 5614 5616 5617 5617 5618 5618 5621 5622 5623 5625 5626 5628 5630 5631 5632 5634 5637 5641 5643 5644
5570 5571 5573 5574 5576 5577 5578 5580 5581 5583 5585 5587 5590 5592 5593 5595 5596 5598 5601 5603 5605 5608 5610 5612 5613 5613 5613 5613 5616 5618 5619 5621 5623 5624 5626 5627 5627 5629 5632 5635 5638 5640
5566 5567 5569 5571 5573 5574 5575 5577 5579 5580 5583 5584 5586 5588 5589 5591 5592 5594 5597 5599 5601 5604 5606 5608 5609 5609 5608 5609 5611 5612 5614 5616 5618 5620 5621 5622 5622 5622 5626 5630 5633 5635
5562 5564 5566 5568 5569 5571 5573 5574 5576 5577 5579 5581 5583 5584 5586 5587 5588 5591 5593 5596 5598 5600 5601 5604 5606 5606 5606 5605 5605 5607 5609 5611 5612 5614 5615 5617 5617 5618 5621 5625 5629 5632
5558 5559 5562 5564 5565 5567 5568 5571 5573 5575 5576 5578 5579 5581 5583 5584 5585 5587 5589 5592 5594 5595 5597 5600 5601 5602 5602 5602 5602 5603 5605 5607 5608 5608 5609 5611 5614 5615 5617 5621 5625 5628
5553 5554 5556 5559 5561 5563 5564 5566 5569 5571 5573 5575 5576 5577 5578 5580 5581 5583 5585 5588 5590 5591 5592 5594 5596 5597 5597 5597 5597 5598 5600 5602 5602 5602 5603 5607 5610 5613 5615 5617 5620 5624
5548 5550 5552 5555 5557 5558 5560 5563 5565 5567 5569 5570 5572 5572 5574 5575 5577 5580 5581 5583 5584 5585 5586 5587 5589 5591 5591 5591 5592 5594 5595 5596 5597 5598 5600 5603 5606 5609 5611 5614 5617 5620
5544 5546 5547 5550 5552 5554 5556 5558 5560 5562 5564 5565 5566 5568 5569 5570 5573 5574 5576 5576 5577 5578 5580 5581 5582 5583 5583 5585 5586 5589 5591 5593 5594 5596 5597 5600 5603 5606 5608 5610 5614 5617
5540 5542 5544 5546 5548 5551 5553 5554 5556 5558 5559 5560 5562 5563 5564 5566 5567 5569 5569 5571 5571 5573 5574 5575 5576 5577 5577 5579 5581 5583 5586 5588 5591 5593 5594 5598 5602 5604 5605 5606 5610 5614
5537 5540 5541 5544 5546 5547 5549 5551 5552 5553 5554 5555 5557 5558 5559 5561 5563 5563 5564 5565 5567 5568 5569 5570 5571 5572 5573 5574 5576 5578 5581 5584 5587 5589 5592 5595 5599 5601 5602 5605 5608 5610
5536 5538 5539 5542 5543 5545 5546 5548 5548 5549 5550 5551 5552 5553 5555 5557 5559 5559 5560 5561 5562 5563 5564 5565 5566 5567 5568 5570 5571 5574 5576 5579 5582 5586 5588 5591 5594 5598 5600 5602 5605 5607
5534 5536 5538 5539 5541 5542 5544 5544 5544 5545 5546 5548 5549 5550 5551 5553 5554 5555 5556 5557 5558 5558 5560 5561 5562 5562 5564 5566 5567 5570 5572 5575 5579 5582 5585 5587 5590 5594 5597 5599 5602 5605
5533 5534 5535 5537 5539 5540 5541 5541 5542 5542 5544 5544 5545 5547 5548 5548 5549 5550 5551 5552 5553 5555 5555 5556 5557 5558 5560 5562 5565 5567 5569 5573 5576 5578 5582 5584 5587 5591 5593 5596 5599 5602
5532 5532 5533 5535 5536 5538 5538 5539 5540 5540 5540 5541 5542 5543 5543 5544 5545 5546 5547 5548 5549 5550 5551 5552 5553 5555 5557 5559 5562 5564 5565 5568 5572 5575 5578 5581 5584 5588 5591 5593 5596 5597
5530 5531 5531 5532 5535 5535 5535 5536 5537 5538 5538 5539 5539 5540 5540 5541 5541 5543 5544 5545 5546 5546 5547 5548 5550 5551 5553 5555 5558 5561 5563 5565 5568 5572 5575 5578 5582 5585 5588 5590 5592 5592
5528 5528 5529 5530 5532 5532 5532 5533 5535 5535 5536 5536 5537 5536 5537 5538 5538 5540 5541 5542 5543 5543 5543 5544 5545 5546 5548 5551 5554 5558 5560 5563 5565 5568 5572 5575 5578 5581 5584 5586 5587 5586
5528 5527 5527 5528 5529 5529 5530 5531 5532 5532 5533 5534 5534 5534 5534 5535 5536 5537 5538 5539 5539 5540 5540 5540 5541 5543 5545 5547 5551 5555 5558 5561 5563 5565 5568 5570 5573 5575 5577 5578 5580 5580
5527 5526 5525 5525 5526 5527 5527 5528 5529 5530 5530 5531 5532 5532 5532 5532 5533 5534 5534 5535 5536 5536 5536 5537 5538 5539 5541 5543 5547 5551 5555 5559 5560 5561 5563 5565 5565 5567 5569 5572 5573 5574
5525 5524 5524 5523 5523 5524 5525 5525 5526 5527 5528 5529 5530 5530 5530 5530 5530 5531 5531 5532 5532 5532 5532 5533 5534 5536 5537 5540 5543 5548 5552 5555 5556 5557 5558 5558 5558 5559 5562 5565 5567 5568
5523 5523 5523 5523 5522 5522 5522 5523 5524 5525 5526 5527 5529 5529 5528 5527 5529 5529 5528 5528 5527 5527 5528 5529 5530 5531 5533 5536 5539 5544 5548 5550 5551 5552 5551 5551 5551 5552 5554 5556 5559 5561
5523 5523 5522 5521 5521 5521 5521 5521 5522 5524 5525 5526 5527 5528 5526 5527 5527 5527 5525 5523 5523 5524 5524 5524 5525 5527 5528 5532 5536 5539 5544 5546 5547 5548 5547 5546 5546 5546 5546 5548 5550 5552
5522 5522 5521 5521 5520 5520 5520 5520 5521 5523 5525 5525 5526 5526 5526 5526 5525 5524 5521 5519 5519 5519 5520 5520 5521 5522 5524 5528 5532 5536 5539 5541 5543 5543 5543 5542 5542 5541 5540 5541 5543 5545